When you browse on this site, cookies collect data to enhance your experience and personalize the content and advertising you see.
Visit our Privacy Policy to learn more. By continuing to use the site, you agree to this use of cookies and data.
  • In France
  • List of Countries
  • For 7 days
  • Water Temperature
  • Satellite Maps
  • Weather Map
  • Weather Widgets
  • user-avatar
    Login

    Hourly Weather Zirani

    Today, 11 December, Tuesday

    Time Temperature Precipitation Wind Pressure Humidity
    00:00 +6°C° 0 mm 2 mps 710 mmHg 61%
    01:00 +6°C° 0 mm 2 mps 709 mmHg 59%
    02:00 +6°C° 0 mm 2 mps 709 mmHg 58%
    03:00 +6°C° 0 mm 2 mps 709 mmHg 59%
    04:00 +6°C° 0 mm 2 mps 709 mmHg 57%
    05:00 +6°C° 0 mm 2 mps 709 mmHg 56%
    06:00 +7°C° 0 mm 2 mps 709 mmHg 54%
    07:00 +7°C° 0 mm 2 mps 709 mmHg 53%
    08:00 +8°C° 0 mm 2 mps 709 mmHg 51%
    09:00 +9°C° 0 mm 2 mps 709 mmHg 48%
    10:00 +12°C° 0 mm 2 mps 709 mmHg 47%
    11:00 +13°C° 0 mm 2 mps 709 mmHg 46%
    12:00 +15°C° 0 mm 2 mps 709 mmHg 45%
    13:00 +13°C° 0 mm 3 mps 708 mmHg 48%
    14:00 +13°C° 0 mm 3 mps 708 mmHg 51%
    15:00 +13°C° 0 mm 3 mps 708 mmHg 54%
    16:00 +12°C° 0 mm 3 mps 707 mmHg 57%
    17:00 +11°C° 0 mm 3 mps 707 mmHg 59%
    18:00 +10°C° 0 mm 4 mps 707 mmHg 61%
    19:00 +10°C° 0 mm 4 mps 707 mmHg 61%
    20:00 +10°C° 0 mm 4 mps 706 mmHg 60%
    21:00 +11°C° 0 mm 3 mps 706 mmHg 59%
    22:00 +10°C° 0 mm 4 mps 707 mmHg 60%
    23:00 +8°C° 0 mm 4 mps 707 mmHg 61%

    Tomorrow, 12 December, Wednesday

    Time Temperature Precipitation Wind Pressure Humidity
    00:00 +8°C° 0 mm 4 mps 707 mmHg 62%
    01:00 +8°C° 0 mm 4 mps 708 mmHg 61%
    02:00 +8°C° 0 mm 4 mps 708 mmHg 61%
    03:00 +8°C° 0 mm 4 mps 708 mmHg 60%
    04:00 +8°C° 0 mm 3 mps 709 mmHg 60%
    05:00 +8°C° 0 mm 3 mps 709 mmHg 61%
    06:00 +8°C° 0 mm 2 mps 710 mmHg 62%
    07:00 +9°C° 0 mm 2 mps 710 mmHg 59%
    08:00 +9°C° 0 mm 2 mps 710 mmHg 56%
    09:00 +10°C° 0 mm 2 mps 710 mmHg 53%
    10:00 +10°C° 0 mm 2 mps 709 mmHg 51%
    11:00 +12°C° 0 mm 2 mps 709 mmHg 49%
    12:00 +13°C° 0 mm 2 mps 709 mmHg 47%
    13:00 +13°C° 0.2 mm 2 mps 708 mmHg 51%
    14:00 +13°C° 0.2 mm 2 mps 708 mmHg 55%
    15:00 +12°C° 0.2 mm 2 mps 707 mmHg 59%
    16:00 +10°C° 0.1 mm 2 mps 707 mmHg 62%
    17:00 +10°C° 0.1 mm 2 mps 707 mmHg 65%
    18:00 +9°C° 0.1 mm 2 mps 707 mmHg 69%
    19:00 +8°C° 0 mm 2 mps 707 mmHg 70%
    20:00 +8°C° 0 mm 3 mps 707 mmHg 72%
    21:00 +8°C° 0 mm 3 mps 707 mmHg 74%
    22:00 +8°C° 0.1 mm 3 mps 708 mmHg 76%
    23:00 +7°C° 0.1 mm 3 mps 708 mmHg 77%

    Day after tomorrow, 13 December, Thursday

    Time Temperature Precipitation Wind Pressure Humidity
    00:00 +7°C° 0.1 mm 2 mps 708 mmHg 79%
    01:00 +7°C° 0 mm 2 mps 708 mmHg 79%
    02:00 +7°C° 0 mm 2 mps 709 mmHg 79%
    03:00 +7°C° 0 mm 2 mps 709 mmHg 79%
    04:00 +6°C° 0 mm 2 mps 709 mmHg 80%
    05:00 +5°C° 0 mm 3 mps 709 mmHg 80%
    06:00 +5°C° 0 mm 3 mps 709 mmHg 81%
    07:00 +5°C° 0.1 mm 3 mps 710 mmHg 79%
    08:00 +5°C° 0.1 mm 3 mps 710 mmHg 78%
    09:00 +5°C° 0.1 mm 3 mps 711 mmHg 76%
    10:00 +6°C° 0.1 mm 4 mps 711 mmHg 75%
    11:00 +6°C° 0.1 mm 4 mps 711 mmHg 73%
    12:00 +6°C° 0.1 mm 5 mps 711 mmHg 71%
    13:00 +6°C° 0.3 mm 4 mps 712 mmHg 74%
    14:00 +5°C° 0.3 mm 4 mps 712 mmHg 76%
    15:00 +5°C° 0.3 mm 4 mps 713 mmHg 78%
    16:00 +5°C° 0.2 mm 4 mps 713 mmHg 80%
    17:00 +4°C° 0.2 mm 3 mps 714 mmHg 81%
    18:00 +4°C° 0.2 mm 3 mps 715 mmHg 82%
    19:00 +3°C° 0 mm 3 mps 715 mmHg 82%
    20:00 +3°C° 0 mm 3 mps 715 mmHg 82%
    21:00 +3°C° 0 mm 2 mps 716 mmHg 81%
    22:00 +3°C° 0 mm 2 mps 716 mmHg 80%
    23:00 +3°C° 0 mm 2 mps 716 mmHg 78%

    14 December, Friday

    Time Temperature Precipitation Wind Pressure Humidity
    00:00 +2°C° 0 mm 2 mps 717 mmHg 77%
    01:00 +2°C° 0 mm 2 mps 717 mmHg 77%
    02:00 +2°C° 0 mm 2 mps 717 mmHg 78%
    03:00 +2°C° 0 mm 2 mps 718 mmHg 79%
    04:00 +2°C° 0 mm 2 mps 718 mmHg 79%
    05:00 +1°C° 0 mm 2 mps 718 mmHg 79%
    06:00 +1°C° 0 mm 2 mps 718 mmHg 80%
    07:00 +2°C° 0 mm 2 mps 719 mmHg 76%
    08:00 +3°C° 0 mm 1 mps 719 mmHg 72%
    09:00 +4°C° 0 mm 1 mps 719 mmHg 68%
    10:00 +4°C° 0 mm 2 mps 719 mmHg 65%
    11:00 +5°C° 0 mm 2 mps 718 mmHg 63%
    12:00 +6°C° 0 mm 2 mps 718 mmHg 60%
    13:00 +5°C° 0 mm 2 mps 718 mmHg 64%
    14:00 +5°C° 0 mm 2 mps 718 mmHg 67%
    15:00 +5°C° 0 mm 2 mps 718 mmHg 71%
    16:00 +5°C° 0.1 mm 1 mps 718 mmHg 75%
    17:00 +4°C° 0.1 mm 1 mps 718 mmHg 80%
    18:00 +4°C° 0.1 mm 1 mps 718 mmHg 84%
    19:00 +4°C° 0.2 mm 1 mps 718 mmHg 85%
    20:00 +4°C° 0.2 mm 1 mps 719 mmHg 86%
    21:00 +4°C° 0.2 mm 1 mps 719 mmHg 87%
    22:00 +3°C° 0.2 mm 1 mps 719 mmHg 87%
    23:00 +3°C° 0.2 mm 1 mps 719 mmHg 88%

    15 December, Saturday

    Time Temperature Precipitation Wind Pressure Humidity
    00:00 +3°C° 0.2 mm 1 mps 719 mmHg 88%
    01:00 +3°C° 0.2 mm 1 mps 719 mmHg 88%
    02:00 +3°C° 0.2 mm 1 mps 719 mmHg 88%
    03:00 +3°C° 0.2 mm 1 mps 719 mmHg 88%
    04:00 +3°C° 0.1 mm 1 mps 719 mmHg 87%
    05:00 +3°C° 0.1 mm 1 mps 720 mmHg 86%
    06:00 +2°C° 0.1 mm 1 mps 720 mmHg 85%
    07:00 +3°C° 0 mm 1 mps 720 mmHg 81%
    08:00 +3°C° 0 mm 1 mps 720 mmHg 77%
    09:00 +4°C° 0 mm 1 mps 721 mmHg 72%
    10:00 +5°C° 0 mm 1 mps 721 mmHg 69%
    11:00 +5°C° 0 mm 1 mps 721 mmHg 65%
    12:00 +6°C° 0 mm 1 mps 721 mmHg 61%
    13:00 +6°C° 0 mm 1 mps 721 mmHg 63%
    14:00 +6°C° 0 mm 1 mps 721 mmHg 65%
    15:00 +6°C° 0 mm 1 mps 721 mmHg 67%
    16:00 +5°C° 0 mm 1 mps 721 mmHg 71%
    17:00 +4°C° 0 mm 1 mps 721 mmHg 76%
    18:00 +2°C° 0 mm 1 mps 722 mmHg 80%
    19:00 +2°C° 0 mm 1 mps 722 mmHg 77%
    20:00 +2°C° 0 mm 1 mps 722 mmHg 75%
    21:00 +2°C° 0 mm 1 mps 722 mmHg 72%
    22:00 +2°C° 0 mm 1 mps 722 mmHg 70%
    23:00 +2°C° 0 mm 1 mps 722 mmHg 68%

    16 December, Sunday

    Time Temperature Precipitation Wind Pressure Humidity
    00:00 +2°C° 0 mm 1 mps 722 mmHg 66%
    01:00 +2°C° 0 mm 1 mps 722 mmHg 66%
    02:00 +1°C° 0 mm 1 mps 722 mmHg 65%
    03:00 +1°C° 0 mm 1 mps 722 mmHg 65%
    04:00 +1°C° 0 mm 1 mps 723 mmHg 65%
    05:00 +1°C° 0 mm 1 mps 723 mmHg 64%
    06:00 +1°C° 0 mm 1 mps 723 mmHg 64%
    07:00 +2°C° 0 mm 1 mps 723 mmHg 62%
    08:00 +2°C° 0 mm 1 mps 723 mmHg 60%
    09:00 +3°C° 0 mm 1 mps 724 mmHg 58%
    10:00 +4°C° 0 mm 1 mps 724 mmHg 58%
    11:00 +5°C° 0 mm 1 mps 723 mmHg 57%
    12:00 +6°C° 0 mm 1 mps 723 mmHg 57%
    13:00 +5°C° 0 mm 1 mps 723 mmHg 61%
    14:00 +5°C° 0 mm 1 mps 723 mmHg 66%
    15:00 +5°C° 0 mm 1 mps 723 mmHg 70%
    16:00 +4°C° 0 mm 1 mps 723 mmHg 73%
    17:00 +3°C° 0 mm 1 mps 723 mmHg 76%
    18:00 +2°C° 0 mm 1 mps 724 mmHg 79%
    19:00 +2°C° 0 mm 1 mps 724 mmHg 77%
    20:00 +2°C° 0 mm 1 mps 724 mmHg 76%
    21:00 +1°C° 0 mm 2 mps 724 mmHg 74%
    22:00 +1°C° 0 mm 2 mps 724 mmHg 73%
    23:00 +1°C° 0 mm 2 mps 723 mmHg 72%
    Show more